Odessa, TX

6:23 AM CDT on April 24, 2018 (GMT -0500)
Odessa-Schlemeyer

Weather History for KODO - October, 2013

Change the Weather History Date:

Monday, October 14, 2013

  Actual Average (KMAF) Record (KMAF)
Temperature  
Mean Temperature 71 °F -  
Max Temperature 78 °F 75 °F 93 °F (2009)
Min Temperature 64 °F 50 °F 39 °F (1969)
Cooling Degree Days 6    
Growing Degree Days 21 (Base 50)    
Moisture  
Dew Point 64 °F    
Average Humidity 81    
Maximum Humidity 97    
Minimum Humidity 56    
Precipitation  
Precipitation 0.00 in - - ()
Sea Level Pressure  
Sea Level Pressure 29.93 in    
Wind  
Wind Speed 12 mph (South)    
Max Wind Speed 16 mph    
Max Gust Speed 21 mph    
Visibility 10 miles    
Events      
Averages and records for this station are not official NWS values.
T = Trace of Precipitation, MM = Missing Value Source: NWS Daily Summary

Daily Weather History Graph

Daily Weather History Graph

Search for Another Location

Airport or City:

Astronomy

Oct. 14, 2013 Rise Set
Actual Time 7:52 AM CDT 7:18 PM CDT
Civil Twilight 7:27 AM CDT 7:42 PM CDT
Nautical Twilight 6:59 AM CDT 8:10 PM CDT
Astronomical Twilight 6:31 AM CDT 8:39 PM CDT
Moon 4:35 PM CDT (10/14) 3:26 AM CDT (10/14)
Length of Visible Light 12h 14m
Length of Day
11h 25m
Waxing Gibbous, 79% of the Moon is Illuminated
Oct 14
Waxing Gibbous
Oct 18
Full
Oct 26
Last Quarter
Nov 3
New
Nov 9
First Quarter

Hourly Weather History & Observations

Time (CDT) Temp. Dew Point Humidity Pressure Visibility Wind Dir Wind Speed Gust Speed Precip Events Conditions
12:53 AM 64.9 °F 63.0 °F 93% 30.03 in 10.0 mi SSE 13.8 mph - N/A   Overcast
1:53 AM 64.9 °F 63.0 °F 93% 30.03 in 10.0 mi SSE 16.1 mph - N/A   Overcast
2:53 AM 64.0 °F 63.0 °F 96% 30.01 in 10.0 mi SSE 16.1 mph - N/A   Overcast
3:53 AM 64.0 °F 63.0 °F 96% 30.00 in 10.0 mi SSE 10.4 mph - N/A   Overcast
4:53 AM 64.9 °F 64.0 °F 97% 29.98 in 7.0 mi South 10.4 mph - N/A   Overcast
5:53 AM 64.9 °F 64.0 °F 97% 29.97 in 10.0 mi South 13.8 mph - N/A   Overcast
6:53 AM 64.9 °F 64.0 °F 97% 29.97 in 7.0 mi South 12.7 mph - N/A   Overcast
7:53 AM 66.0 °F 64.0 °F 93% 29.96 in 10.0 mi South 13.8 mph - N/A   Overcast
8:53 AM 66.0 °F 64.0 °F 93% 29.97 in 10.0 mi South 13.8 mph - N/A   Overcast
9:53 AM 66.9 °F 64.0 °F 90% 29.97 in 10.0 mi South 13.8 mph - N/A   Overcast
10:53 AM 68.0 °F 64.0 °F 87% 29.97 in 10.0 mi South 15.0 mph - N/A   Overcast
11:53 AM 71.1 °F 64.9 °F 81% 29.95 in 10.0 mi SSW 13.8 mph - N/A   Mostly Cloudy
12:27 PM 71.1 °F 64.9 °F 81% 30.04 in 10.0 mi SSW 13.8 mph 20.7 mph N/A   Scattered Clouds
12:53 PM 72.0 °F 64.9 °F 78% 29.92 in 10.0 mi SSW 13.8 mph - N/A   Partly Cloudy
1:53 PM 73.9 °F 66.0 °F 76% 29.89 in 10.0 mi South 11.5 mph - N/A   Clear
2:53 PM 75.9 °F 64.0 °F 67% 29.86 in 10.0 mi SW 10.4 mph - N/A   Clear
3:53 PM 78.1 °F 61.0 °F 56% 29.83 in 10.0 mi SW 12.7 mph - N/A   Clear
4:53 PM 77.0 °F 63.0 °F 62% 29.83 in 10.0 mi SSW 8.1 mph - N/A   Clear
5:53 PM 77.0 °F 62.1 °F 60% 29.82 in 10.0 mi South 6.9 mph - N/A   Clear
6:53 PM 75.9 °F 63.0 °F 64% 29.83 in 10.0 mi South 4.6 mph - N/A   Clear
7:53 PM 73.9 °F 63.0 °F 68% 29.84 in 10.0 mi South 4.6 mph - N/A   Clear
8:53 PM 73.0 °F 64.0 °F 73% 29.86 in 10.0 mi South 5.8 mph - N/A   Clear
9:53 PM 73.0 °F 64.0 °F 73% 29.87 in 10.0 mi South 8.1 mph - N/A   Clear
10:53 PM 73.0 °F 66.0 °F 79% 29.89 in 10.0 mi South 10.4 mph - N/A   Mostly Cloudy
11:53 PM 72.0 °F 66.9 °F 84% 29.89 in 10.0 mi South 11.5 mph - N/A   Scattered Clouds